Weather History for KDVO - January, 2013

Change the Weather History Date:

Friday, January 4, 2013

  Actual Average (KAPC) Record (KAPC)
Temperature  
Mean Temperature 42 °F 45 °F  
Max Temperature 53 °F 54 °F 67 °F (2012)
Min Temperature 32 °F 36 °F 22 °F (2009)
Degree Days  
Heating Degree Days 22    
Month to date heating degree days  
Since 1 July heating degree days  
Cooling Degree Days 0    
Month to date cooling degree days  
Year to date cooling degree days  
Moisture  
Dew Point 37 °F    
Average Humidity 86    
Maximum Humidity 100    
Minimum Humidity 54    
Precipitation  
Precipitation 0.00 in - 5.69 in (1982)
Month to date precipitation  
Year to date precipitation  
Since 1 July precipitation  
Sea Level Pressure  
Sea Level Pressure 30.26 in    
Wind  
Wind Speed 2 mph (South)    
Max Wind Speed 9 mph    
Max Gust Speed -    
Visibility 9 miles    
Events      
T = Trace of Precipitation, MM = Missing Value Source: NWS Daily Summary

Daily Weather History Graph

Daily Weather History Graph

Search for Another Location

Airport or City:

Trip Planner

Search our weather history database for the weather conditions in past years. The results will help you decide how hot, cold, wet, or windy it might be!

Date:

Astronomy

Jan. 04, 2013 Rise Set
Actual Time 7:27 AM PST 5:03 PM PST
Civil Twilight 6:57 AM PST 5:33 PM PST
Nautical Twilight 6:24 AM PST 6:06 PM PST
Astronomical Twilight 5:52 AM PST 6:38 PM PST
Moon No Moon Rise 11:19 AM PST (1/4)
Length of Visible Light 10h 35m
Length of Day
9h 36m
Waning Gibbous, 54% of the Moon is Illuminated
Jan 4
Waning Gibbous
Jan 4
Last Quarter
Jan 11
New
Jan 18
First Quarter
Jan 26
Full

Hourly Weather History & Observations

Time (PST) Temp. Windchill Dew Point Humidity Pressure Visibility Wind Dir Wind Speed Gust Speed Precip Events Conditions
12:35 AM 35.6 °F - 35.6 °F 100% 30.28 in 9.0 mi Calm Calm - N/A   Unknown
12:55 AM 35.6 °F - 35.6 °F 100% 30.28 in 7.0 mi Calm Calm - N/A   Unknown
1:15 AM 33.8 °F - 33.8 °F 100% 30.28 in 4.0 mi Calm Calm - N/A   Mist
3:55 AM 32.0 °F - 32.0 °F 100% 30.28 in 5.0 mi Calm Calm - N/A   Clear
4:15 AM 32.0 °F - 32.0 °F 100% 30.27 in 3.0 mi Calm Calm - N/A   Clear
4:35 AM 32.0 °F - 32.0 °F 100% 30.27 in 6.0 mi Calm Calm - N/A   Clear
4:55 AM 33.8 °F - 33.8 °F 100% 30.27 in 9.0 mi Calm Calm - N/A   Clear
5:15 AM 33.8 °F - 33.8 °F 100% 30.28 in 10.0 mi Calm Calm - N/A   Clear
5:35 AM 33.8 °F 30.8 °F 33.8 °F 100% 30.28 in 7.0 mi North 3.5 mph - N/A   Clear
5:55 AM 33.8 °F - 33.8 °F 100% 30.29 in 6.0 mi Calm Calm - N/A   Clear
6:15 AM 32.0 °F - 32.0 °F 100% 30.29 in 7.0 mi Calm Calm - N/A   Clear
6:35 AM 32.0 °F - 32.0 °F 100% 30.29 in 7.0 mi Calm Calm - N/A   Clear
6:55 AM 32.0 °F - 32.0 °F 100% 30.28 in 5.0 mi Calm Calm - N/A   Clear
7:15 AM 32.0 °F 27.5 °F 32.0 °F 100% 30.28 in 4.0 mi SSW 4.6 mph - N/A   Clear
7:35 AM 32.0 °F 27.5 °F 32.0 °F 100% 30.28 in 4.0 mi SSE 4.6 mph - N/A   Clear
7:55 AM 32.0 °F - 32.0 °F 100% 30.29 in 4.0 mi Calm Calm - N/A   Clear
8:15 AM 32.0 °F - 32.0 °F 100% 30.30 in 1.2 mi Calm Calm - N/A   Clear
8:35 AM 33.8 °F - 33.8 °F 100% 30.31 in 3.0 mi Calm Calm - N/A   Clear
8:55 AM 37.4 °F - 37.4 °F 100% 30.31 in 6.0 mi Calm Calm - N/A   Clear
9:15 AM 37.4 °F - 37.4 °F 100% 30.32 in 7.0 mi Calm Calm - N/A   Clear
9:35 AM 39.2 °F - 39.2 °F 100% 30.31 in 8.0 mi Calm Calm - N/A   Clear
9:55 AM 42.8 °F - 42.8 °F 100% 30.31 in 10.0 mi Calm Calm - N/A   Clear
10:15 AM 46.4 °F 45.2 °F 41.0 °F 81% 30.31 in 10.0 mi South 3.5 mph - N/A   Clear
10:35 AM 48.2 °F - 39.2 °F 71% 30.31 in 10.0 mi Calm Calm - N/A   Clear
10:55 AM 48.2 °F - 37.4 °F 66% 30.31 in 10.0 mi SE 3.5 mph - N/A   Clear
11:15 AM 48.2 °F - 35.6 °F 62% 30.30 in 10.0 mi Calm Calm - N/A   Clear
11:35 AM 50.0 °F - 37.4 °F 62% 30.28 in 10.0 mi SSE 3.5 mph - N/A   Clear
11:55 AM 50.0 °F - 35.6 °F 58% 30.27 in 10.0 mi SE 3.5 mph - N/A   Clear
12:15 PM 50.0 °F - 37.4 °F 62% 30.27 in 10.0 mi South 4.6 mph - N/A   Clear
12:35 PM 51.8 °F - 37.4 °F 58% 30.25 in 10.0 mi South 5.8 mph - N/A   Clear
12:55 PM 51.8 °F - 37.4 °F 58% 30.24 in 10.0 mi South 6.9 mph - N/A   Clear
1:15 PM 53.6 °F - 37.4 °F 54% 30.24 in 10.0 mi South 4.6 mph - N/A   Clear
1:35 PM 53.6 °F - 37.4 °F 54% 30.23 in 10.0 mi South 5.8 mph - N/A   Clear
1:55 PM 53.6 °F - 37.4 °F 54% 30.22 in 10.0 mi South 5.8 mph - N/A   Clear
2:15 PM 53.6 °F - 37.4 °F 54% 30.22 in 10.0 mi South 4.6 mph - N/A   Clear
2:35 PM 53.6 °F - 39.2 °F 58% 30.21 in 10.0 mi South 9.2 mph - N/A   Clear
2:55 PM 53.6 °F - 39.2 °F 58% 30.21 in 10.0 mi South 8.1 mph - N/A   Clear
3:35 PM 53.6 °F - 39.2 °F 58% 30.21 in 10.0 mi South 5.8 mph - N/A   Clear
3:55 PM 53.6 °F - 39.2 °F 58% 30.21 in 10.0 mi SSW 6.9 mph - N/A   Clear
4:15 PM 53.6 °F - 39.2 °F 58% 30.21 in 10.0 mi SSW 8.1 mph - N/A   Clear
4:35 PM 51.8 °F - 39.2 °F 62% 30.20 in 10.0 mi SSW 5.8 mph - N/A   Clear
4:55 PM 50.0 °F - 41.0 °F 71% 30.20 in 10.0 mi SSW 5.8 mph - N/A   Clear
5:15 PM 48.2 °F - 41.0 °F 76% 30.20 in 10.0 mi SSW 4.6 mph - N/A   Clear
5:35 PM 46.4 °F 45.2 °F 41.0 °F 81% 30.21 in 10.0 mi SW 3.5 mph - N/A   Clear
5:55 PM 46.4 °F 43.5 °F 41.0 °F 81% 30.21 in 10.0 mi South 5.8 mph - N/A   Clear
6:15 PM 44.6 °F 42.2 °F 41.0 °F 87% 30.22 in 10.0 mi SSW 4.6 mph - N/A   Clear
6:35 PM 42.8 °F 40.1 °F 41.0 °F 93% 30.22 in 10.0 mi SSW 4.6 mph - N/A   Clear
6:55 PM 41.0 °F 37.1 °F 41.0 °F 100% 30.22 in 10.0 mi SSW 5.8 mph - N/A   Clear
7:15 PM 41.0 °F 36.4 °F 41.0 °F 100% 30.22 in 10.0 mi South 6.9 mph - N/A   Clear
7:35 PM 41.0 °F 37.1 °F 39.2 °F 93% 30.22 in 10.0 mi South 5.8 mph - N/A   Clear
7:55 PM 41.0 °F 37.1 °F 41.0 °F 100% 30.22 in 10.0 mi SSW 5.8 mph - N/A   Clear
8:15 PM 41.0 °F 35.8 °F 41.0 °F 100% 30.23 in 10.0 mi South 8.1 mph - N/A   Clear
8:35 PM 41.0 °F 36.4 °F 41.0 °F 100% 30.23 in 10.0 mi South 6.9 mph - N/A   Clear
8:55 PM 39.2 °F 34.2 °F 39.2 °F 100% 30.23 in 10.0 mi South 6.9 mph - N/A   Clear
9:15 PM 39.2 °F 35.0 °F 39.2 °F 100% 30.24 in 10.0 mi SSW 5.8 mph - N/A   Clear
9:35 PM 39.2 °F 35.0 °F 39.2 °F 100% 30.24 in 10.0 mi South 5.8 mph - N/A   Clear
9:55 PM 39.2 °F 35.0 °F 39.2 °F 100% 30.24 in 10.0 mi South 5.8 mph - N/A   Clear
10:15 PM 39.2 °F 35.9 °F 39.2 °F 100% 30.25 in 10.0 mi SSW 4.6 mph - N/A   Clear
10:35 PM 39.2 °F 35.9 °F 39.2 °F 100% 30.25 in 10.0 mi South 4.6 mph - N/A   Clear
10:55 PM 39.2 °F 35.0 °F 39.2 °F 100% 30.25 in 10.0 mi South 5.8 mph - N/A   Clear
11:15 PM 39.2 °F 35.0 °F 39.2 °F 100% 30.25 in 10.0 mi South 5.8 mph - N/A   Clear
11:35 PM 37.4 °F 32.8 °F 37.4 °F 100% 30.25 in 10.0 mi South 5.8 mph - N/A   Clear
11:55 PM 39.2 °F 35.0 °F 39.2 °F 100% 30.24 in 10.0 mi South 5.8 mph - N/A   Clear